"Pseudo-MPEC" for C0GNJT5

Created 2023 Mar 21 18:22:05 UT using Find_Orb

Click here for an explanation of pseudo-MPECs

 
 Astrometry: 
     C0GNJT5* C2023 03 13?EmwK#l1!;gMHMWM(.34uLQV[;Y%`x.uYxFDyed8]8uE%cA+:wA0V00
     C0GNJT5  C2023 03 131FdqD%??8q?\J[G*`hl53Kx.Wm,x#qxAhv`HoY`fxAstrometryCV00
     C0GNJT5  C2023 03 1364jt4*?*+r8b?D:vo8=^hW`]6FIii9#447rPredacted;qlZds?)V00
     C0GNJT5  C2023 03 13q3%gLv%:TeRDe!3/o6C]';gRaH/KuN.Fagggl\L14pwi*,8@)uxcV00
     C0GNJT5 KC2023 03 13.28719 09 11 30.30 +49 03 26.0    ~3D8q 22.3 RoNEOCP291
     C0GNJT5 KC2023 03 13.31833 09 11 23.74 +49 04 03.1    ~3D8q       oNEOCP291
     C0GNJT5 KC2023 03 14.33333 09 07 55.04 +49 24 16.2    ~3E9b       oNEOCP291
     C0GNJT5 mC2023 03 14T`ece:kN`-;(t3N0_`xV7h`CZV\$?7d^T*xFX8SM@'ao8F/6VFXpV00
     C0GNJT5 mC2023 03 14C9Q#o3'h$FLYPJY.f[7mv`_wovSo.JlGUohP*GvVZLZ94clickQYV00
     C0GNJT5 mC2023 03 14JhLFN2CwbwFJ!8rVhereahx7sE4)Y:LOo+y72y?DforCp`t0u.\QV00
     C0GNJT5 mC2023 03 14IK)`xON'biy5rH@K_RJXPmNjADU,7GUQ:ZDvB3u1_DRd]^5p5\DYV00
     C0GNJT5 KC2023 03 14.34976 09 07 51.58 +49 24 34.9    ~3E9b       oNEOCP291
     C0GNJT5 KC2023 03 14.36617 09 07 48.07 +49 24 53.2    ~3E9b       oNEOCP291
     C0GNJT5 mC2023 03 19$C4tOB+BM!7aE3]3bor`!]D9Ln(b8bf5vaeV]JSdKj%JWb]?10fGV00
     C0GNJT5 mC2023 03 19$Mr.5dJV!=?WTi0explanationrnwrW90Q%tWEA5KH-4]K89K90DV00
     C0GNJT5 mC2023 03 19qg[j[6g.G[x`8/+3x1[_yr17f6+P[oH7_^M'lubdM7a55LJuKB`=V00
     C0GNJT5 mC2023 03 19.vH_1$.Z;GrCNrj(yF*6.sZC!`?a#(7%AI)O]xPUuYsmIUmJ_]X2V00

Station data:
(291) LPL/Spacewatch II  (N31.961669 W111.599905)  US/Arizona.  Observers J.
   V. Scotti, R. S. McMillan. 1.8-m f/2.7 reflector + CCD.
(V00) Kitt Peak-Bok  (N31.963125 W111.600190)  US/Arizona.  Observers T. A.
   Pruyne, B. M. Africano, E. J. Christensen, G. A. Farneth, D. C. Fuls, A.
   R. Gibbs, A. D. Grauer, H. Gröller, J. A. Johnson, R. A. Kowalski, S. M.
   Larson, G. J. Leonard, D. Rankin, R. L. Seaman, F. C. Shelly, K. W.
   Wierzchoś. 2.25-m reflector + CCD.

Orbital elements:  C0GNJT5
   Perihelion 2023 Jun 30.06859 +/- 0.792 TT =  1:38:46 (JD 2460125.56859)
Epoch 2023 Mar 19.0 TT = JDT 2460022.5   Earth MOID: 0.4944   Me: 0.0514
M 301.84743363 +/- 0.36             (J2000 ecliptic)             AutoNEOCP
n   0.56421230 +/- 0.00182          Peri.  168.11756 +/- 0.07
a   1.45046642 +/- 0.00313          Node   129.14891 +/- 0.7
e   0.6873720 +/- 0.00549           Incl.   34.86784 +/- 1.3
P   1.75/638.05d           H 20.76  G  0.15   U  8.5
q 0.45345635 +/- 0.00729    Q 2.44747649 +/- 0.0123
From 17 observations 2023 Mar. 13-19; mean residual 0".22
Residuals in arcseconds: 
230313 V00  .26+  .19-    230314 291  .59+  .20+    230314 291  .57-  .04+    
230313 V00  .05+  .12-    230314 V00  .03-  .17-    230319 V00  .23-  .01-    
230313 V00  .15+  .06-    230314 V00  .08-  .17-    230319 V00  .07+  .02+    
230313 V00  .02+  .02-    230314 V00  .17-  .33-    230319 V00  .12+  .15+    
230313 291  .27-  .44+    230314 V00  .15-  .16-    230319 V00  .05+  .14-    
230313 291  .08-  .02-    230314 291  .31+  .28+    

Ephemerides (geocentric):
Date (UTC) HH   RA             Dec           delta  r     elong  mag " sig PA
---- --------  ------------   ------------  ------ ------ -----  --- --------
2023 03 21 18  08 43 42.963   +51 21 49.18  .85397 1.5510 113.7 22.9 1.31  14
2023 03 21 19  08 43 35.297   +51 22 20.40  .85409 1.5506 113.7 22.9 1.33  14
2023 03 21 20  08 43 27.638   +51 22 51.54  .85420 1.5502 113.6 22.9 1.35  14
2023 03 21 21  08 43 19.985   +51 23 22.58  .85432 1.5498 113.5 22.9 1.38  14
2023 03 21 22  08 43 12.339   +51 23 53.54  .85443 1.5495 113.5 22.9 1.40  14
2023 03 21 23  08 43 04.700   +51 24 24.42  .85455 1.5491 113.4 22.9 1.43  14
2023 03 22 00  08 42 57.067   +51 24 55.21  .85466 1.5487 113.4 22.9 1.45  14
2023 03 22 01  08 42 49.441   +51 25 25.91  .85478 1.5483 113.3 22.9 1.48  14
2023 03 22 02  08 42 41.823   +51 25 56.52  .85490 1.5479 113.3 22.9 1.50  14
2023 03 22 03  08 42 34.211   +51 26 27.05  .85501 1.5476 113.2 22.9 1.53  14
2023 03 22 04  08 42 26.605   +51 26 57.50  .85513 1.5472 113.2 22.9 1.55  13
2023 03 22 05  08 42 19.007   +51 27 27.86  .85525 1.5468 113.1 22.9 1.58  13
2023 03 22 06  08 42 11.416   +51 27 58.13  .85536 1.5464 113.0 22.9 1.60  13
2023 03 22 07  08 42 03.831   +51 28 28.32  .85548 1.5460 113.0 22.9 1.63  13
2023 03 22 08  08 41 56.253   +51 28 58.42  .85560 1.5456 112.9 22.9 1.65  13
2023 03 22 09  08 41 48.683   +51 29 28.44  .85571 1.5453 112.9 22.9 1.68  13
2023 03 22 10  08 41 41.119   +51 29 58.38  .85583 1.5449 112.8 22.9 1.71  13
2023 03 22 11  08 41 33.562   +51 30 28.22  .85595 1.5445 112.8 22.9 1.73  13
2023 03 22 12  08 41 26.012   +51 30 57.99  .85607 1.5441 112.7 22.9 1.76  13
2023 03 22 13  08 41 18.469   +51 31 27.67  .85619 1.5437 112.7 22.9 1.79  13
2023 03 22 14  08 41 10.933   +51 31 57.27  .85630 1.5433 112.6 22.9 1.81  13
2023 03 22 15  08 41 03.404   +51 32 26.78  .85642 1.5430 112.6 22.9 1.84  13
2023 03 22 16  08 40 55.883   +51 32 56.21  .85654 1.5426 112.5 22.9 1.87  13
2023 03 22 17  08 40 48.368   +51 33 25.55  .85666 1.5422 112.4 22.9 1.89  13
2023 03 22 18  08 40 40.860   +51 33 54.81  .85678 1.5418 112.4 22.9 1.92  12
2023 03 22 19  08 40 33.359   +51 34 23.99  .85690 1.5414 112.3 22.9 1.95  12
2023 03 22 20  08 40 25.866   +51 34 53.08  .85702 1.5410 112.3 22.9 1.98  12
2023 03 22 21  08 40 18.379   +51 35 22.09  .85714 1.5407 112.2 22.9 2.00  12
2023 03 22 22  08 40 10.900   +51 35 51.02  .85725 1.5403 112.2 22.9 2.03  12
2023 03 22 23  08 40 03.428   +51 36 19.86  .85737 1.5399 112.1 22.9 2.06  12
2023 03 23 00  08 39 55.963   +51 36 48.63  .85749 1.5395 112.1 22.9 2.09  12
2023 03 23 01  08 39 48.505   +51 37 17.30  .85761 1.5391 112.0 22.9 2.12  12
2023 03 23 02  08 39 41.054   +51 37 45.90  .85773 1.5387 112.0 22.9 2.15  12
2023 03 23 03  08 39 33.611   +51 38 14.42  .85785 1.5384 111.9 22.9 2.17  12
2023 03 23 04  08 39 26.174   +51 38 42.85  .85797 1.5380 111.8 22.9 2.20  12
2023 03 23 05  08 39 18.745   +51 39 11.20  .85809 1.5376 111.8 22.9 2.23  12
2023 03 23 06  08 39 11.324   +51 39 39.46  .85821 1.5372 111.7 22.9 2.26  11
2023 03 23 07  08 39 03.909   +51 40 07.65  .85833 1.5368 111.7 22.9 2.29  11
2023 03 23 08  08 38 56.502   +51 40 35.76  .85845 1.5364 111.6 22.9 2.32  11
2023 03 23 09  08 38 49.102   +51 41 03.78  .85858 1.5361 111.6 22.9 2.35  11
2023 03 23 10  08 38 41.709   +51 41 31.72  .85870 1.5357 111.5 22.9 2.38  11
2023 03 23 11  08 38 34.324   +51 41 59.58  .85882 1.5353 111.5 22.9 2.41  11
2023 03 23 12  08 38 26.946   +51 42 27.36  .85894 1.5349 111.4 22.9 2.44  11
2023 03 23 13  08 38 19.575   +51 42 55.06  .85906 1.5345 111.4 22.9 2.47  11
2023 03 23 14  08 38 12.212   +51 43 22.68  .85918 1.5341 111.3 22.9 2.50  11
2023 03 23 15  08 38 04.856   +51 43 50.21  .85930 1.5337 111.2 22.9 2.53  11
2023 03 23 16  08 37 57.507   +51 44 17.67  .85942 1.5334 111.2 22.9 2.56  11
2023 03 23 17  08 37 50.166   +51 44 45.05  .85955 1.5330 111.1 22.9 2.59  11